Location: Arran
(51.9410°N, 101.7372°W)
Time: 12:28:30
(UTC+00:00)

SPROUT - Visible Passes

Search period start: 08 December 2023 00:00
Search period end: 18 December 2023 00:00
Orbit: 522 x 528 km, 98.0° (Epoch: 07 December)

Date Brightness Start Highest point End Pass type
(mag) Time Alt. Az. Time Alt. Az. Time Alt. Az.
10 Dec ? 23:47:45 10° NW 23:48:27 10° NW 23:49:10 10° WNW visible
11 Dec ? 23:34:31 10° NNW 23:36:23 13° WNW 23:38:14 10° W visible
12 Dec ? 23:21:46 10° NNW 23:24:15 17° WNW 23:26:43 10° W visible
